Weather History for Meriden, CT

Change the Weather History Date:

Tuesday, May 28, 2013

  Actual Average (KHVN) Record (KHVN)
Temperature  
Mean Temperature 58 °F -  
Max Temperature 72 °F 67 °F 90 °F (1977)
Min Temperature 43 °F 51 °F 43 °F (1974)
Degree Days  
Heating Degree Days 8    
Growing Degree Days 8 (Base 50)    
Moisture  
Dew Point 50 °F    
Average Humidity 80    
Maximum Humidity 94    
Minimum Humidity 35    
Precipitation  
Precipitation 0.01 in - - ()
Sea Level Pressure  
Sea Level Pressure 30.19 in    
Wind  
Wind Speed 2 mph (South)    
Max Wind Speed 12 mph    
Max Gust Speed -    
Visibility 7 miles    
Events Rain    
Averages and records for this station are not official NWS values.
T = Trace of Precipitation, MM = Missing Value Source: NWS Daily Summary

Daily Weather History Graph

Daily Weather History Graph

Search for Another Location

Airport:

Trip Planner

Search our weather history database for the weather conditions in past years. The results will help you decide how hot, cold, wet, or windy it might be!

Date:

Astronomy

May. 28, 2013 Rise Set
Actual Time 5:21 AM EDT 8:15 PM EDT
Civil Twilight 4:48 AM EDT 8:48 PM EDT
Nautical Twilight 4:07 AM EDT 9:30 PM EDT
Astronomical Twilight 3:19 AM EDT 10:19 PM EDT
Moon 11:35 PM EDT (5/28) 9:07 AM EDT (5/28)
Length of Visible Light 15h 59m
Length of Day
14h 54m
Waning Gibbous, 83% of the Moon is Illuminated
May 28
Waning Gibbous
May 31
Last Quarter
Jun 8
New
Jun 16
First Quarter
Jun 23
Full

Hourly Weather History & Observations

Time (EDT) Temp. Dew Point Humidity Pressure Visibility Wind Dir Wind Speed Gust Speed Precip Events Conditions
12:53 AM 48.0 °F 44.1 °F 86% 30.19 in 10.0 mi Calm Calm - N/A   Clear
1:53 AM 45.0 °F 43.0 °F 93% 30.20 in 10.0 mi Calm Calm - N/A   Clear
2:53 AM 44.1 °F 42.1 °F 93% 30.20 in 4.0 mi Calm Calm - N/A   Clear
3:53 AM 44.1 °F 42.1 °F 93% 30.19 in 10.0 mi Calm Calm - N/A   Clear
4:53 AM 43.0 °F 41.0 °F 93% 30.21 in 9.0 mi Calm Calm - N/A   Clear
5:53 AM 45.0 °F 43.0 °F 93% 30.21 in 10.0 mi Calm Calm - N/A   Clear
6:53 AM 48.9 °F 45.0 °F 86% 30.23 in 10.0 mi Calm Calm - N/A   Clear
7:53 AM 52.0 °F 46.0 °F 80% 30.23 in 10.0 mi Calm Calm - N/A   Clear
8:53 AM 59.0 °F 45.0 °F 60% 30.23 in 10.0 mi North 3.5 mph - N/A   Clear
9:53 AM 64.0 °F 45.0 °F 50% 30.22 in 10.0 mi Calm Calm - N/A   Clear
10:53 AM 68.0 °F 45.0 °F 43% 30.22 in 10.0 mi Calm Calm - N/A   Clear
11:53 AM 70.0 °F 43.0 °F 38% 30.22 in 10.0 mi South 6.9 mph - N/A   Clear
12:53 PM 72.0 °F 43.0 °F 35% 30.21 in 10.0 mi South 11.5 mph - N/A   Clear
1:53 PM 71.1 °F 44.1 °F 38% 30.19 in 10.0 mi South 10.4 mph - N/A   Clear
2:53 PM 69.1 °F 45.0 °F 42% 30.19 in 10.0 mi South 8.1 mph - N/A   Scattered Clouds
3:53 PM 62.1 °F 52.0 °F 70% 30.21 in 8.0 mi SSW 6.9 mph - 0.00 in Rain Light Rain
4:53 PM 60.1 °F 55.9 °F 86% 30.20 in 8.0 mi SSE 3.5 mph - 0.01 in Rain Light Rain
5:50 PM 59.0 °F 55.4 °F 88% 30.20 in 7.0 mi South 6.9 mph - 0.00 in Rain Light Rain
5:53 PM 59.0 °F 55.9 °F 90% 30.20 in 6.0 mi South 4.6 mph - 0.00 in Rain Light Rain
6:05 PM 57.2 °F 55.4 °F 94% 30.20 in 6.0 mi SSE 4.6 mph - 0.00 in   Overcast
6:53 PM 57.0 °F 54.0 °F 89% 30.19 in 7.0 mi South 4.6 mph - 0.00 in Rain Light Rain
7:15 PM 57.2 °F 53.6 °F 88% 30.19 in 7.0 mi South 4.6 mph - 0.00 in   Overcast
7:23 PM 57.2 °F 53.6 °F 88% 30.19 in 7.0 mi South 3.5 mph - 0.00 in   Overcast
7:53 PM 57.0 °F 55.0 °F 93% 30.18 in 3.0 mi Calm Calm - 0.00 in Rain Light Rain
8:00 PM 57.2 °F 55.4 °F 94% 30.18 in 2.5 mi Calm Calm - 0.00 in Rain Light Rain
8:09 PM 57.2 °F 55.4 °F 94% 30.17 in 3.0 mi Calm Calm - 0.00 in Rain Light Rain
8:45 PM 57.2 °F 55.4 °F 94% 30.16 in 3.0 mi Calm Calm - 0.00 in   Overcast
8:53 PM 57.0 °F 55.0 °F 93% 30.17 in 3.0 mi South 5.8 mph - 0.00 in   Overcast
9:34 PM 57.2 °F 55.4 °F 94% 30.16 in 5.0 mi South 5.8 mph - N/A   Overcast
9:53 PM 57.9 °F 55.9 °F 93% 30.17 in 7.0 mi Variable 3.5 mph - N/A   Overcast
10:53 PM 57.9 °F 55.9 °F 93% 30.16 in 5.0 mi South 5.8 mph - N/A   Overcast
11:53 PM 57.9 °F 55.9 °F 93% 30.16 in 7.0 mi South 4.6 mph - 0.00 in Rain Light Rain